4XCWK LLHA-LLHA

Flight info

Callsign 4XCWK
Flight time 0h 48m
Altitude 1000
Route /
Aircraft C172/L-S/L

Departure

Time 2026-04-25 15:36
Airport Uri Michaeli Haifa International Airport (LLHA)

Arrival

Time 2026-04-25 16:24
Airport Uri Michaeli Haifa International Airport (LLHA)
Time Latitude Longitude Altitude Speed Heading
2026-04-25 15:28 32.81210 35.04200 21 ft 0 kts 253°
2026-04-25 15:29 32.81207 35.04192 21 ft 3 kts 230°
2026-04-25 15:29 32.81159 35.04213 21 ft 10 kts 122°
2026-04-25 15:29 32.81157 35.04235 21 ft 0 kts 73°
2026-04-25 15:33 32.81158 35.04238 21 ft 4 kts 72°
2026-04-25 15:33 32.81125 35.04326 21 ft 26 kts 165°
2026-04-25 15:34 32.80875 35.04436 22 ft 48 kts 161°
2026-04-25 15:34 32.80603 35.04552 19 ft 35 kts 160°
2026-04-25 15:34 32.80507 35.04564 16 ft 3 kts 147°
2026-04-25 15:34 32.80502 35.04579 16 ft 9 kts 72°
2026-04-25 15:35 32.81270 35.04270 145 ft 72 kts 335°
2026-04-25 15:35 32.81755 35.04031 259 ft 81 kts 330°
2026-04-25 15:35 32.82267 35.03764 437 ft 79 kts 342°
2026-04-25 15:36 32.83046 35.04754 629 ft 105 kts 81°
2026-04-25 15:36 32.82692 35.05517 712 ft 107 kts 132°
2026-04-25 15:36 32.82195 35.06123 926 ft 98 kts 133°
2026-04-25 15:37 32.81668 35.06652 1009 ft 102 kts 142°
2026-04-25 15:37 32.81063 35.07181 1019 ft 112 kts 146°
2026-04-25 15:37 32.80395 35.07680 1000 ft 117 kts 151°
2026-04-25 15:37 32.79640 35.08028 925 ft 121 kts 166°
2026-04-25 15:38 32.78811 35.08298 947 ft 124 kts 167°
2026-04-25 15:38 32.77955 35.08497 794 ft 125 kts 171°
2026-04-25 15:38 32.77247 35.08262 894 ft 106 kts 244°
2026-04-25 15:38 32.76952 35.07381 709 ft 124 kts 260°
2026-04-25 15:39 32.76975 35.06450 820 ft 112 kts 297°
2026-04-25 15:39 32.77527 35.05821 835 ft 114 kts 335°
2026-04-25 15:39 32.78330 35.05501 629 ft 126 kts 341°
2026-04-25 15:39 32.79082 35.05202 500 ft 94 kts 341°
2026-04-25 15:40 32.79665 35.04964 287 ft 87 kts 338°
2026-04-25 15:40 32.79852 35.04877 236 ft 85 kts 334°
2026-04-25 15:40 32.80755 35.04489 25 ft 78 kts 335°
2026-04-25 15:40 32.81237 35.04278 97 ft 71 kts 336°
2026-04-25 15:41 32.81700 35.04070 249 ft 72 kts 335°
2026-04-25 15:41 32.82175 35.03834 410 ft 76 kts 333°
2026-04-25 15:41 32.82668 35.03526 530 ft 82 kts 327°
2026-04-25 15:41 32.83170 35.03672 652 ft 94 kts 56°
2026-04-25 15:42 32.83483 35.04432 696 ft 106 kts 68°
2026-04-25 15:42 32.83392 35.05296 855 ft 108 kts 116°
2026-04-25 15:42 32.82845 35.05929 938 ft 115 kts 146°
2026-04-25 15:42 32.82143 35.06454 975 ft 124 kts 151°
2026-04-25 15:43 32.81372 35.06947 997 ft 128 kts 154°
2026-04-25 15:43 32.80567 35.07419 1012 ft 129 kts 156°
2026-04-25 15:43 32.79717 35.07782 957 ft 133 kts 173°
2026-04-25 15:43 32.78902 35.07478 988 ft 117 kts 221°
2026-04-25 15:44 32.78366 35.06786 940 ft 114 kts 234°
2026-04-25 15:44 32.77957 35.06066 796 ft 101 kts 256°
2026-04-25 15:44 32.78157 35.05367 742 ft 91 kts 338°
2026-04-25 15:44 32.78840 35.05206 557 ft 101 kts 351°
2026-04-25 15:45 32.79502 35.05033 368 ft 90 kts 341°
2026-04-25 15:45 32.80005 35.04815 200 ft 72 kts 334°
2026-04-25 15:45 32.80487 35.04604 64 ft 76 kts 335°
2026-04-25 15:45 32.80646 35.04534 39 ft 73 kts 336°
2026-04-25 15:46 32.81367 35.04214 146 ft 64 kts 331°
2026-04-25 15:46 32.81786 35.04065 301 ft 62 kts 338°
2026-04-25 15:46 32.82230 35.03834 451 ft 77 kts 329°
2026-04-25 15:46 32.82727 35.03526 545 ft 80 kts 347°
2026-04-25 15:47 32.83226 35.03871 536 ft 98 kts 46°
2026-04-25 15:47 32.83633 35.04508 656 ft 100 kts 49°
2026-04-25 15:47 32.83759 35.05240 863 ft 100 kts 131°
2026-04-25 15:47 32.83128 35.05607 965 ft 108 kts 161°
2026-04-25 15:48 32.82418 35.05852 1126 ft 109 kts 165°
2026-04-25 15:48 32.81667 35.06103 1307 ft 108 kts 164°
2026-04-25 15:48 32.80925 35.06478 1181 ft 120 kts 140°
2026-04-25 15:48 32.80244 35.07112 1139 ft 129 kts 143°
2026-04-25 15:49 32.79464 35.07676 1083 ft 133 kts 152°
2026-04-25 15:49 32.78585 35.08131 1004 ft 135 kts 161°
2026-04-25 15:49 32.77689 35.08457 993 ft 130 kts 167°
2026-04-25 15:49 32.76854 35.08198 955 ft 129 kts 229°
2026-04-25 15:50 32.76618 35.07233 928 ft 123 kts 282°
2026-04-25 15:50 32.76877 35.06310 975 ft 113 kts 305°
2026-04-25 15:50 32.77545 35.05883 928 ft 111 kts 343°
2026-04-25 15:50 32.78270 35.05587 846 ft 114 kts 341°
2026-04-25 15:51 32.79051 35.05213 507 ft 121 kts 336°
2026-04-25 15:51 32.79302 35.05105 432 ft 106 kts 339°
2026-04-25 15:51 32.80042 35.04800 204 ft 78 kts 335°
2026-04-25 15:51 32.80542 35.04577 46 ft 71 kts 334°
2026-04-25 15:52 32.80987 35.04380 27 ft 64 kts 333°
2026-04-25 15:52 32.81420 35.04198 129 ft 72 kts 334°
2026-04-25 15:52 32.81897 35.03921 281 ft 85 kts 328°
2026-04-25 15:52 32.82416 35.03574 540 ft 84 kts 345°
2026-04-25 15:53 32.82874 35.03964 691 ft 93 kts 52°
2026-04-25 15:53 32.83046 35.04696 870 ft 97 kts 91°
2026-04-25 15:53 32.82732 35.05432 901 ft 113 kts 140°
2026-04-25 15:53 32.82096 35.05979 1013 ft 115 kts 143°
2026-04-25 15:54 32.81418 35.06546 1046 ft 124 kts 146°
2026-04-25 15:54 32.80700 35.07119 1099 ft 127 kts 146°
2026-04-25 15:54 32.79931 35.07650 1117 ft 127 kts 161°
2026-04-25 15:54 32.79074 35.07581 1059 ft 127 kts 219°
2026-04-25 15:55 32.78496 35.06791 999 ft 129 kts 232°
2026-04-25 15:55 32.78083 35.05879 900 ft 117 kts 272°
2026-04-25 15:55 32.78591 35.05292 792 ft 113 kts 347°
2026-04-25 15:55 32.79406 35.05088 465 ft 122 kts 339°
2026-04-25 15:56 32.80155 35.04723 195 ft 96 kts 345°
2026-04-25 15:56 32.80682 35.04521 32 ft 67 kts 335°
2026-04-25 15:56 32.81069 35.04348 62 ft 58 kts 332°
2026-04-25 15:56 32.81464 35.04160 161 ft 69 kts 331°
2026-04-25 15:57 32.81949 35.03898 261 ft 83 kts 335°
2026-04-25 15:57 32.82522 35.03739 326 ft 92 kts 359°
2026-04-25 15:57 32.83038 35.04205 486 ft 98 kts 47°
2026-04-25 15:57 32.83385 35.04927 631 ft 103 kts 69°
2026-04-25 15:58 32.83056 35.05627 705 ft 113 kts 149°
2026-04-25 15:58 32.82355 35.06134 793 ft 121 kts 149°
2026-04-25 15:58 32.81606 35.06660 870 ft 125 kts 153°
2026-04-25 15:58 32.80848 35.07116 981 ft 124 kts 155°
2026-04-25 15:59 32.80009 35.07525 892 ft 133 kts 167°
2026-04-25 15:59 32.79109 35.07447 852 ft 131 kts 212°
2026-04-25 15:59 32.78451 35.06710 724 ft 129 kts 233°
2026-04-25 15:59 32.78110 35.05905 547 ft 98 kts 278°
2026-04-25 16:00 32.78608 35.05391 410 ft 102 kts 336°
2026-04-25 16:00 32.79055 35.05207 352 ft 103 kts 339°
2026-04-25 16:00 32.79841 35.04898 207 ft 65 kts 334°
2026-04-25 16:00 32.80280 35.04696 104 ft 71 kts 335°
2026-04-25 16:01 32.80697 35.04515 28 ft 61 kts 335°
2026-04-25 16:01 32.81049 35.04361 107 ft 51 kts 333°
2026-04-25 16:01 32.81471 35.04176 146 ft 70 kts 339°
2026-04-25 16:01 32.81954 35.04026 315 ft 69 kts 341°
2026-04-25 16:02 32.82469 35.03946 454 ft 80 kts
2026-04-25 16:02 32.82907 35.04372 600 ft 93 kts 49°
2026-04-25 16:02 32.83264 35.05026 752 ft 95 kts 55°
2026-04-25 16:02 32.83528 35.05734 957 ft 95 kts 66°
2026-04-25 16:03 32.83692 35.06498 1134 ft 101 kts 73°
2026-04-25 16:03 32.83880 35.07367 1122 ft 118 kts 75°
2026-04-25 16:03 32.84040 35.08308 1277 ft 115 kts 76°
2026-04-25 16:03 32.84199 35.09226 1393 ft 115 kts 94°
2026-04-25 16:04 32.83950 35.10167 1418 ft 124 kts 106°
2026-04-25 16:04 32.83771 35.11176 1403 ft 125 kts 89°
2026-04-25 16:04 32.83807 35.12197 1449 ft 119 kts 76°
2026-04-25 16:04 32.83980 35.13131 1568 ft 117 kts 72°
2026-04-25 16:05 32.84178 35.14055 1657 ft 103 kts 72°
2026-04-25 16:05 32.84332 35.14837 1718 ft 100 kts 71°
2026-04-25 16:05 32.85373 35.15968 1753 ft 115 kts 21°
2026-04-25 16:06 32.86130 35.16308 1790 ft 118 kts 17°
2026-04-25 16:06 32.86909 35.16586 1837 ft 116 kts 12°
2026-04-25 16:06 32.87692 35.16789 1846 ft 119 kts 10°
2026-04-25 16:06 32.88518 35.16998 1736 ft 126 kts
2026-04-25 16:07 32.89424 35.16910 1509 ft 133 kts 345°
2026-04-25 16:07 32.89988 35.16634 1385 ft 132 kts 321°
2026-04-25 16:07 32.90519 35.15334 1245 ft 130 kts 291°
2026-04-25 16:07 32.90811 35.14325 1213 ft 128 kts 292°
2026-04-25 16:08 32.91023 35.13334 1305 ft 119 kts 276°
2026-04-25 16:08 32.90778 35.12405 1358 ft 121 kts 228°
2026-04-25 16:08 32.90007 35.12120 1466 ft 119 kts 184°
2026-04-25 16:08 32.89160 35.12114 1487 ft 126 kts 179°
2026-04-25 16:09 32.88275 35.12121 1493 ft 129 kts 180°
2026-04-25 16:09 32.87398 35.12132 1628 ft 121 kts 179°
2026-04-25 16:09 32.86577 35.12150 1793 ft 118 kts 178°
2026-04-25 16:09 32.85795 35.12403 1798 ft 121 kts 144°
2026-04-25 16:10 32.85209 35.13091 1833 ft 118 kts 118°
2026-04-25 16:10 32.84785 35.13962 1850 ft 119 kts 108°
2026-04-25 16:10 32.85184 35.14509 1794 ft 113 kts
2026-04-25 16:10 32.86043 35.14586 1595 ft 128 kts
2026-04-25 16:11 32.86925 35.14672 1513 ft 129 kts
2026-04-25 16:11 32.87796 35.14766 1543 ft 123 kts
2026-04-25 16:11 32.88321 35.14234 1733 ft 114 kts 257°
2026-04-25 16:11 32.87606 35.13907 1750 ft 123 kts 178°
2026-04-25 16:12 32.86714 35.13881 1649 ft 135 kts 187°
2026-04-25 16:12 32.85805 35.13699 1738 ft 127 kts 190°
2026-04-25 16:12 32.84992 35.13777 1891 ft 119 kts 141°
2026-04-25 16:12 32.84790 35.14341 1989 ft 110 kts 77°
2026-04-25 16:13 32.85519 35.14540 2102 ft 105 kts 302°
2026-04-25 16:13 32.85230 35.13892 2294 ft 109 kts 181°
2026-04-25 16:13 32.84801 35.14512 2430 ft 104 kts 77°
2026-04-25 16:13 32.85278 35.15063 2504 ft 105 kts 26°
2026-04-25 16:14 32.86002 35.15488 2348 ft 127 kts 20°
2026-04-25 16:14 32.86827 35.15812 2398 ft 119 kts
2026-04-25 16:14 32.87631 35.15893 2486 ft 115 kts 356°
2026-04-25 16:14 32.88436 35.15828 2518 ft 116 kts 350°
2026-04-25 16:15 32.89294 35.15603 2343 ft 130 kts 342°
2026-04-25 16:15 32.90095 35.15268 2483 ft 114 kts 326°
2026-04-25 16:15 32.90242 35.14372 2364 ft 126 kts 256°
2026-04-25 16:15 32.89894 35.13407 2407 ft 121 kts 244°
2026-04-25 16:16 32.89308 35.12778 2511 ft 116 kts 184°
2026-04-25 16:16 32.88626 35.13059 2752 ft 105 kts 150°
2026-04-25 16:16 32.87863 35.13582 2389 ft 135 kts 158°
2026-04-25 16:16 32.86988 35.13804 2345 ft 129 kts 162°
2026-04-25 16:17 32.86202 35.14372 2277 ft 134 kts 143°
2026-04-25 16:17 32.85700 35.15175 2382 ft 113 kts 84°
2026-04-25 16:17 32.85910 35.16090 2389 ft 115 kts 61°
2026-04-25 16:17 32.86548 35.16288 2537 ft 101 kts 354°
2026-04-25 16:18 32.87255 35.16162 2586 ft 108 kts 347°
2026-04-25 16:18 32.87504 35.16099 2586 ft 110 kts 344°
2026-04-25 16:18 32.88810 35.15666 2444 ft 117 kts 338°
2026-04-25 16:18 32.89419 35.15169 2750 ft 90 kts 294°
2026-04-25 16:19 32.89531 35.14393 2752 ft 105 kts 279°
2026-04-25 16:19 32.89512 35.13448 2641 ft 119 kts 248°
2026-04-25 16:19 32.88797 35.12923 2416 ft 134 kts 201°
2026-04-25 16:20 32.86844 35.12341 2040 ft 144 kts 190°
2026-04-25 16:20 32.85857 35.12258 1923 ft 136 kts 181°
2026-04-25 16:20 32.84212 35.11821 1916 ft 129 kts 213°
2026-04-25 16:21 32.83416 35.11256 1750 ft 139 kts 212°
2026-04-25 16:21 32.82650 35.10702 1879 ft 125 kts 216°
2026-04-25 16:21 32.81937 35.10106 1910 ft 128 kts 220°
2026-04-25 16:21 32.81295 35.09379 1839 ft 131 kts 233°
2026-04-25 16:22 32.80633 35.08585 1489 ft 140 kts 221°
2026-04-25 16:22 32.79805 35.07945 1026 ft 129 kts 213°
2026-04-25 16:22 32.79094 35.07399 841 ft 117 kts 221°
2026-04-25 16:22 32.78506 35.06767 690 ft 110 kts 229°
2026-04-25 16:23 32.78154 35.06018 582 ft 100 kts 265°
2026-04-25 16:23 32.78436 35.05431 543 ft 93 kts 341°
2026-04-25 16:23 32.79053 35.05236 479 ft 93 kts 339°
2026-04-25 16:23 32.79675 35.04936 292 ft 101 kts 337°
2026-04-25 16:24 32.80305 35.04684 143 ft 77 kts 339°
2026-04-25 16:24 32.80753 35.04489 33 ft 65 kts 334°
2026-04-25 16:24 32.81117 35.04319 21 ft 39 kts 342°
2026-04-25 16:24 32.81272 35.04253 24 ft 19 kts 343°
2026-04-25 16:25 32.81367 35.04176 23 ft 8 kts 243°
2026-04-25 16:25 32.81362 35.04171 23 ft 4 kts 210°
2026-04-25 16:25 32.81284 35.04175 21 ft 8 kts 52°
2026-04-25 16:25 32.81287 35.04180 21 ft 0 kts 62°